Location: Gad�tanya
(48.0500°N, 20.8500°E)
Time: 11:47:58
(UTC+00:00)

Cosmos 1980 - Pass Details

Date: 05 July 2020
Orbit: 839 x 847 km, 71.0° (Epoch: 14 August)

Event Time Altitude Azimuth Distance (km) Brightness Sun altitude
Exits shadow 21:56:24 13° 224° (SW) 2,211 5.6 -18.6°
Maximum altitude 22:01:17 58° 302° (WNW) 973 4.2 -18.7°
Drops below altitude 10° 22:06:52 10° 22° (NNE) 2,467 7.0 -18.9°
Sets 22:09:23 0° 26° (NNE) 3,406 7.8 -18.9°
